Погода в Добросине

Украина / Львовская область     50°07′59″N   23°51′06″E
В апреле 2022 года жителям России запретили посещать сайт meteo.paraplan.net по решению Генеральной прокуратуры. Аудитория сайта уменьшилась в 10 раз. Владельцы сайта не видят смысла в поддержке погодного сервера в таких условиях. Сайт будет закрыт в октябре.
темп.,
°C
ветер,
м/с
пор.,
м/с
влажн.,
%
обл.,
%
осадки,
мм/ч
давл.,
гПа
погр.,
м
4 октября, вт
вт400:00+8зсз81580100 0.0 1012771
03:00+7зсз71589100 0.0 1013673
06:00+8з71391100 0.0 1013631
09:00+9зсз81381100 0.1 1014886
12:00+10з71282100 0.0 10161060
15:00+11зсз71173100 0.1 10171355
18:00+11з61173100 0.1 1020948
21:00+10з7127866 0.1 1021490
5 октября, ср
ср500:00+10з6127679 0.0 1023400
03:00+8з5128299 0.0 1024333
06:00+7зюз51187100 0.0 1025265
09:00+8зюз51081100 0.0 1025288
12:00+13зюз5761100 0.0 1025577
15:00+15зюз5753100 0.0 1024851
18:00+14зюз4964100 0.0 1023321
21:00+10юз4117997 0.0 1024228
6 октября, чт
чт600:00+9юз41279100 0.0 1024252
03:00+9юз51378100 0.0 1024266
06:00+9зюз41280100 0.0 1024246
09:00+10зюз6137697 0.0 1024310
12:00+16зюз7115899 0.0 1025510
15:00+18з7105493 0.0 1024795
18:00+17з5106599 0.0 1025366
21:00+13з4108456 0.0 1028194
7 октября, пт
пт700:00+13сз498083 0.0 1030309
03:00+10зсз339111 0.0 103134
06:00+9сз22910 0.0 103211
09:00+10в11850 0.0 103254
12:00+15вюв22630 0.0 1031669
15:00+17вюв33513 0.0 10291125
18:00+14юв35630 0.0 102794
21:00+10юв35755 0.0 102775
8 октября, сб
сб800:00+9юв38805 0.0 1025134
03:00+9ююв310885 0.0 1024186
06:00+8ю35925 0.0 102285
09:00+11ююз25845 0.0 1022134
12:00+17зюз46585 0.0 1021669
15:00+19з455699 0.0 10191008
18:00+16зсз376990 0.0 1020179
21:00+14зсз367665 0.0 1021152